| time (UTC) | temp F | wind direction | speed MPH | gust MPH | rain 1hr in | rain 24hr in | rain mn in | humidity % | barometer mb |
| 20260831010036 | 75 | 0.0 | 0.0 | 0.00 | 0.00 | 0.00 | 77 | 1019.2 | |
| 20260831004532 | 76 | 0.0 | 0.0 | 0.00 | 0.00 | 0.00 | 75 | 1019.1 | |
| 20260831003036 | 76 | 0.0 | 0.0 | 0.00 | 0.00 | 0.00 | 74 | 1018.9 | |
| 20260831001533 | 77 | 0.0 | 0.0 | 0.00 | 0.00 | 0.00 | 72 | 1018.9 | |
| 20260831000033 | 78 | 0.0 | 0.0 | 0.00 | 0.00 | 0.00 | 69 | 1018.9 | |
| 20260830234530 | 79 | 0.0 | 0.0 | 0.00 | 0.00 | 0.00 | 68 | 1018.9 | |
| 20260830233034 | 79 | 0.0 | 0.0 | 0.00 | 0.00 | 0.00 | 65 | 1018.8 | |
| 20260830231529 | 80 | 0.0 | 0.0 | 0.00 | 0.00 | 0.00 | 65 | 1018.7 | |
| 20260830230029 | 81 | 0.0 | 0.0 | 0.00 | 0.00 | 0.00 | 65 | 1018.6 | |
| 20260830224529 | 81 | 0.0 | 0.0 | 0.00 | 0.00 | 0.00 | 63 | 1018.6 | |
| 20260830223027 | 82 | 0.0 | 0.0 | 0.00 | 0.00 | 0.00 | 62 | 1018.6 | |
| 20260830221527 | 82 | 0.0 | 0.0 | 0.00 | 0.00 | 0.00 | 60 | 1018.7 | |
| 20260830220027 | 82 | 0.0 | 0.0 | 0.00 | 0.00 | 0.00 | 60 | 1018.7 | |
| 20260830214526 | 83 | 0.0 | 0.0 | 0.00 | 0.00 | 0.00 | 58 | 1018.6 | |
| 20260830213034 | 83 | 0.0 | 0.0 | 0.00 | 0.00 | 0.00 | 59 | 1018.7 | |
| 20260830211525 | 83 | 0.0 | 0.0 | 0.00 | 0.00 | 0.00 | 56 | 1018.7 | |
| 20260830210028 | 84 | 0.0 | 0.0 | 0.00 | 0.00 | 0.00 | 55 | 1018.8 | |
| 20260830204524 | 84 | 0.0 | 0.0 | 0.00 | 0.00 | 0.00 | 56 | 1018.7 | |
| 20260830203023 | 84 | 0.0 | 0.0 | 0.00 | 0.00 | 0.00 | 56 | 1018.9 | |
| 20260830201521 | 85 | 0.0 | 0.0 | 0.00 | 0.00 | 0.00 | 55 | 1019.1 | |
| 20260830200020 | 85 | 0.0 | 0.0 | 0.00 | 0.00 | 0.00 | 57 | 1019.0 | |
| 20260830194521 | 85 | 0.0 | 0.0 | 0.00 | 0.00 | 0.00 | 58 | 1019.2 | |
| 20260830193016 | 85 | 0.0 | 0.0 | 0.00 | 0.00 | 0.00 | 60 | 1019.4 | |
| 20260830191519 | 86 | 0.0 | 0.0 | 0.00 | 0.00 | 0.00 | 56 | 1019.5 | |
| 20260830190013 | 86 | 0.0 | 0.0 | 0.00 | 0.00 | 0.00 | 55 | 1019.8 | |
| 20260830184518 | 86 | 0.0 | 0.0 | 0.00 | 0.00 | 0.00 | 58 | 1019.9 | |
| 20260830183010 | 86 | 0.0 | 0.0 | 0.00 | 0.00 | 0.00 | 54 | 1020.1 | |
| 20260830181508 | 86 | 0.0 | 0.0 | 0.00 | 0.00 | 0.00 | 56 | 1020.5 | |
| 20260830180007 | 86 | 0.0 | 0.0 | 0.00 | 0.00 | 0.00 | 54 | 1020.8 | |
| 20260830174505 | 88 | 0.0 | 0.0 | 0.00 | 0.00 | 0.00 | 53 | 1021.0 | |
| 20260830173002 | 89 | 0.0 | 0.0 | 0.00 | 0.00 | 0.00 | 53 | 1021.3 | |
| 20260830171637 | 89 | 0.0 | 0.0 | 0.00 | 0.00 | 0.00 | 55 | 1021.5 | |
| 20260830170057 | 88 | 0.0 | 0.0 | 0.00 | 0.00 | 0.00 | 57 | 1021.9 | |
| 20260830164557 | 87 | 0.0 | 0.0 | 0.00 | 0.00 | 0.00 | 56 | 1022.3 | |
| 20260830163055 | 87 | 0.0 | 0.0 | 0.00 | 0.00 | 0.00 | 57 | 1022.3 | |
| 20260830161554 | 86 | 0.0 | 0.0 | 0.00 | 0.00 | 0.00 | 60 | 1022.4 | |
| 20260830160053 | 87 | 0.0 | 0.0 | 0.00 | 0.00 | 0.00 | 57 | 1022.4 | |
| 20260830154548 | 85 | 0.0 | 0.0 | 0.00 | 0.00 | 0.00 | 63 | 1022.4 | |
| 20260830153046 | 84 | 0.0 | 0.0 | 0.00 | 0.00 | 0.00 | 62 | 1022.5 | |
| 20260830151550 | 83 | 0.0 | 0.0 | 0.00 | 0.00 | 0.00 | 65 | 1022.5 | |
| 20260830150040 | 82 | 0.0 | 0.0 | 0.00 | 0.00 | 0.00 | 68 | 1022.5 | |
| 20260830144542 | 79 | 0.0 | 0.0 | 0.00 | 0.00 | 0.00 | 73 | 1022.6 | |
| 20260830143028 | 77 | 0.0 | 0.0 | 0.00 | 0.00 | 0.00 | 79 | 1022.5 | |
| 20260830141526 | 74 | 0.0 | 0.0 | 0.00 | 0.00 | 0.00 | 84 | 1022.6 | |
| 20260830140020 | 71 | 0.0 | 0.0 | 0.00 | 0.00 | 0.00 | 90 | 1022.7 | |
| 20260830134531 | 70 | 0.0 | 0.0 | 0.00 | 0.00 | 0.00 | 93 | 1022.9 | |
| 20260830133017 | 69 | 0.0 | 0.0 | 0.00 | 0.00 | 0.00 | 94 | 1023.0 | |
| 20260830131516 | 68 | 0.0 | 0.0 | 0.00 | 0.00 | 0.00 | 95 | 1022.9 | |
| 20260830130016 | 67 | 0.0 | 0.0 | 0.00 | 0.00 | 0.00 | 96 | 1023.0 | |
| 20260830124515 | 67 | 0.0 | 0.0 | 0.00 | 0.00 | 0.00 | 97 | 1023.0 | |
| 20260830123023 | 66 | 0.0 | 0.0 | 0.00 | 0.00 | 0.00 | 97 | 1022.7 | |
| 20260830121515 | 66 | 0.0 | 0.0 | 0.00 | 0.00 | 0.00 | 97 | 1022.7 | |
| 20260830120012 | 65 | 0.0 | 0.0 | 0.00 | 0.00 | 0.00 | 97 | 1022.6 | |
| 20260830114511 | 64 | 0.0 | 0.0 | 0.00 | 0.00 | 0.00 | 97 | 1022.5 | |
| 20260830113010 | 64 | 0.0 | 0.0 | 0.00 | 0.00 | 0.00 | 97 | 1022.3 | |
| 20260830111511 | 64 | 0.0 | 0.0 | 0.00 | 0.00 | 0.00 | 96 | 1022.1 | |
| 20260830110011 | 64 | 0.0 | 0.0 | 0.00 | 0.00 | 0.00 | 96 | 1021.8 | |
| 20260830104508 | 64 | 0.0 | 0.0 | 0.00 | 0.00 | 0.00 | 96 | 1021.7 | |
| 20260830103008 | 64 | 0.0 | 0.0 | 0.00 | 0.00 | 0.00 | 96 | 1021.6 | |
| 20260830101507 | 64 | 0.0 | 0.0 | 0.00 | 0.00 | 0.00 | 96 | 1021.4 | |
| 20260830100006 | 64 | 0.0 | 0.0 | 0.00 | 0.00 | 0.00 | 96 | 1021.3 | |
| 20260830094508 | 64 | 0.0 | 0.0 | 0.00 | 0.00 | 0.00 | 96 | 1021.5 | |
| 20260830093008 | 65 | 0.0 | 0.0 | 0.00 | 0.00 | 0.00 | 96 | 1021.2 | |
| 20260830091503 | 65 | 0.0 | 0.0 | 0.00 | 0.00 | 0.00 | 95 | 1021.3 | |
| 20260830090002 | 65 | 0.0 | 0.0 | 0.00 | 0.00 | 0.00 | 95 | 1021.4 | |
| 20260830084629 | 65 | 0.0 | 0.0 | 0.00 | 0.00 | 0.00 | 95 | 1021.6 | |
| 20260830083101 | 65 | 0.0 | 0.0 | 0.00 | 0.00 | 0.00 | 95 | 1021.6 | |
| 20260830081626 | 65 | 0.0 | 0.0 | 0.00 | 0.00 | 0.00 | 94 | 1021.6 | |
| 20260830080106 | 66 | 0.0 | 0.0 | 0.00 | 0.00 | 0.00 | 95 | 1021.7 | |
| 20260830074616 | 66 | 0.0 | 0.0 | 0.00 | 0.00 | 0.00 | 95 | 1021.7 | |
| 20260830073054 | 66 | 0.0 | 0.0 | 0.00 | 0.00 | 0.00 | 94 | 1021.8 | |
| 20260830071558 | 66 | 0.0 | 0.0 | 0.00 | 0.00 | 0.00 | 93 | 1021.7 | |
| 20260830070052 | 66 | 0.0 | 0.0 | 0.00 | 0.00 | 0.00 | 93 | 1021.8 | |
| 20260830064549 | 67 | 0.0 | 0.0 | 0.00 | 0.00 | 0.00 | 92 | 1021.9 | |
| 20260830063049 | 67 | 0.0 | 0.0 | 0.00 | 0.00 | 0.00 | 92 | 1021.8 | |
| 20260830061548 | 67 | 0.0 | 0.0 | 0.00 | 0.00 | 0.00 | 92 | 1022.1 | |
| 20260830060044 | 68 | 0.0 | 0.0 | 0.00 | 0.00 | 0.00 | 92 | 1022.4 | |
| 20260830054542 | 68 | 0.0 | 0.0 | 0.00 | 0.00 | 0.00 | 93 | 1022.5 | |
| 20260830053041 | 68 | 0.0 | 0.0 | 0.00 | 0.00 | 0.00 | 91 | 1022.5 | |
| 20260830051541 | 68 | 0.0 | 0.0 | 0.00 | 0.00 | 0.00 | 91 | 1022.6 | |
| 20260830050042 | 68 | 0.0 | 0.0 | 0.00 | 0.00 | 0.00 | 90 | 1022.5 | |
| 20260830044541 | 69 | 0.0 | 0.0 | 0.00 | 0.00 | 0.00 | 90 | 1022.5 | |
| 20260830043043 | 69 | 0.0 | 0.0 | 0.00 | 0.00 | 0.00 | 89 | 1022.5 | |
| 20260830041540 | 69 | 0.0 | 0.0 | 0.00 | 0.00 | 0.00 | 88 | 1022.4 | |
| 20260830040031 | 70 | 0.0 | 0.0 | 0.00 | 0.00 | 0.00 | 88 | 1022.4 | |
| 20260830034530 | 70 | 0.0 | 0.0 | 0.00 | 0.00 | 0.00 | 87 | 1022.3 | |
| 20260830033029 | 70 | 0.0 | 0.0 | 0.00 | 0.00 | 0.00 | 87 | 1022.2 | |
| 20260830031529 | 71 | 0.0 | 0.0 | 0.00 | 0.00 | 0.00 | 87 | 1022.1 | |
| 20260830030029 | 71 | 0.0 | 0.0 | 0.00 | 0.00 | 0.00 | 86 | 1022.0 | |
| 20260830024534 | 70 | 0.0 | 0.0 | 0.00 | 0.00 | 0.00 | 86 | 1022.1 | |
| 20260830023029 | 70 | 0.0 | 0.0 | 0.00 | 0.00 | 0.00 | 85 | 1022.0 | |
| 20260830021527 | 70 | 0.0 | 0.0 | 0.00 | 0.00 | 0.00 | 83 | 1022.0 | |
| 20260830020026 | 70 | 0.0 | 0.0 | 0.00 | 0.00 | 0.00 | 83 | 1021.8 | |
| 20260830014536 | 71 | 0.0 | 0.0 | 0.00 | 0.00 | 0.00 | 83 | 1021.6 | |
| 20260830013025 | 71 | 0.0 | 0.0 | 0.00 | 0.00 | 0.00 | 82 | 1021.5 | |
| 20260830011525 | 72 | 0.0 | 0.0 | 0.00 | 0.00 | 0.00 | 82 | 1021.3 |